Simultaneous Nadir Overpasses (SNOs) Predictions

Prediction of SNOs between AQUA and NPP Satellite Orbit:

Table of predicted SNOs for the next 14.0 days since TLE Epoch: 11/2/2018
Index Date (AQUA) Time (AQUA) Lat,Lon (AQUA) SZA (AQUA ) Date (NPP) Time (NPP) Lat,Lon (NPP) SZA (NPP ) Distance(km) Time Diff (sec)
1 11/03/2018 13:21:23 57.05,-163.69 128.19 11/03/2018 13:20:11 57.24,-165.02 128.78 83.31 72
2 11/03/2018 14:05:15 -75.78, 27.04 68.68 11/03/2018 14:05:11 -75.77, 26.97 68.66 2.02 4
3 11/03/2018 14:54:14 77.02,-161.18 109.99 11/03/2018 14:55:28 77.00,-161.22 109.94 2.82 74
4 11/06/2018 05:32:31 74.96, -26.97 112.96 11/06/2018 05:31:38 74.96, -27.03 113.03 1.88 53
5 11/06/2018 06:21:34 -76.22, 144.27 68.34 11/06/2018 06:21:57 -76.21, 144.23 68.35 1.23 23
6 11/08/2018 21:48:48 75.51, 90.39 113.17 11/08/2018 21:48:22 75.51, 90.35 113.20 1.13 26
7 11/08/2018 22:37:53 -76.64, -98.43 68.03 11/08/2018 22:38:43 -76.64, -98.44 68.07 0.16 50
8 11/11/2018 13:18:02 -68.55, 25.78 59.45 11/11/2018 13:16:48 -68.68, 25.09 59.22 31.30 74
9 11/11/2018 14:05:05 76.04,-152.15 113.36 11/11/2018 14:05:06 76.04,-152.15 113.36 0.06 1
10 11/11/2018 14:51:59 -81.58, 56.53 74.65 11/11/2018 14:53:13 -81.18, 57.04 74.88 45.43 74
11 11/14/2018 05:32:17 -75.54, 154.61 65.42 11/14/2018 05:31:27 -75.55, 154.70 65.40 2.84 50
12 11/14/2018 06:21:22 76.51, -34.76 113.58 11/14/2018 06:21:50 76.51, -34.70 113.54 1.61 28




NCC Satellite Simultaneous Nadir Overpasses (SNOs) Prediction Service
